[[{"header":{"parameterUnit":"m.s-1","parameterCategory":1,"la1":30.2991,"la2":30.254,"lo1":-89.0895,"lo2":-89.0444,"dy":0.0017,"dx":0.0017,"nx":28,"ny":28,"refTime":"2025-08-20T21:00:00:Z","depth":0,"parameterNumber":2,"parameterNumberName":"U-component_of_WINDS"},"data":[0,0,0,0,0,0,0,0,0,0,0,0,0,0,0,0,0,0,0,0,0,0,0,0,0,0,0,0,0,0,0,0,0,0,0,0,0,0,0,0,0,0,0,0,0,0,0,0,0,0,0,0,0,0,0,0,0,0,-0.1404,-0.1402,0,-0.1261,-0.126,-0.1258,-0.1191,-0.1191,-0.1191,-0.1191,-0.1042,-0.1038,-0.1034,0,0,0,0,0,0,0,0,0,0,0,0,0,-0.1615,-0.1611,-0.1404,-0.1402,-0.14,-0.1262,-0.126,-0.1258,-0.1191,-0.1191,-0.1191,-0.1191,-0.1044,-0.1039,-0.1034,0,0,0,0,0,0,0,0,0,0,0,0,0,-0.1503,-0.161,-0.1404,-0.135,-0.1344,-0.1262,-0.126,-0.1257,-0.1191,-0.1191,-0.1191,-0.1192,-0.1045,-0.1039,-0.1033,-0.0993,0,0,-0.1015,-0.1012,0,0,0,0,0,0,0,0,-0.1509,-0.1495,-0.136,-0.1354,-0.1347,-0.1244,-0.1279,-0.1168,-0.1191,-0.1249,-0.1191,-0.1192,-0.1109,-0.1098,-0.1071,-0.0986,-0.0979,-0.1014,-0.101,-0.1008,-0.1006,0,0,0,0,0,0,0,-0.1517,-0.1501,-0.1347,-0.1358,-0.135,-0.1332,-0.1317,-0.1258,-0.118,-0.1244,-0.1239,-0.1223,-0.1106,-0.1077,-0.1067,-0.0977,-0.1014,-0.1009,-0.1005,-0.1003,-0.085,-0.085,0,0,0,0,0,0,-0.1534,-0.1508,-0.1352,-0.1343,-0.143,-0.1328,-0.1311,-0.1277,-0.118,-0.1166,-0.1223,-0.1221,-0.1087,-0.1074,-0.1061,-0.1006,-0.1008,-0.1002,-0.0999,-0.0851,-0.085,-0.085,0,0,0,0,0,0,-0.1539,-0.1521,-0.1358,-0.1424,-0.1402,-0.1325,-0.1287,-0.1274,-0.1245,-0.1165,-0.115,-0.1208,-0.1087,-0.107,-0.101,-0.1,-0.0999,-0.0994,-0.0851,-0.0851,-0.085,-0.0898,0,0,0,0,0,0,-0.1545,-0.1523,-0.1508,-0.1424,-0.1399,-0.131,-0.1287,-0.1271,-0.1235,-0.123,-0.1147,-0.1133,-0.1085,-0.102,-0.1004,-0.0992,-0.0989,-0.0852,-0.0851,-0.085,-0.0897,-0.0899,-0.0901,0,0,0,0,0,-0.1553,-0.1526,-0.1507,-0.1489,-0.1378,-0.131,-0.1295,-0.1242,-0.1235,-0.1218,-0.1166,-0.1136,-0.1004,-0.1014,-0.0996,-0.0982,-0.0852,-0.0851,-0.085,-0.0896,-0.0898,-0.0901,0,0,0,0,0,0,-0.161,-0.1515,-0.1492,-0.1438,-0.1383,-0.1299,-0.1276,-0.1247,-0.1191,-0.1189,-0.1124,-0.1106,-0.1052,-0.1011,-0.1024,-0.0937,-0.0925,-0.0921,-0.0966,-0.0968,-0.097,-0.098,-0.0984,0,0,0,0,0,-0.1617,-0.157,-0.1489,-0.1449,-0.1422,-0.1354,-0.1323,-0.1286,-0.1226,-0.1202,-0.1146,-0.1087,-0.1032,-0.0998,-0.0943,-0.089,-0.087,-0.0872,-0.0874,-0.0876,-0.0872,-0.084,-0.0839,-0.0847,-0.0847,-0.0847,0,0,-0.1629,-0.1571,-0.1546,-0.1459,-0.1411,-0.1364,-0.1335,-0.1286,-0.1249,-0.1194,-0.1134,-0.1091,-0.1021,-0.0965,-0.0937,-0.0929,-0.0866,-0.0875,-0.0877,-0.0872,-0.0839,-0.0838,-0.0838,-0.0846,-0.0846,-0.0847,0,0,-0.1627,-0.1579,-0.154,-0.1494,-0.1423,-0.1378,-0.1368,-0.1289,-0.1258,-0.1197,-0.1155,-0.111,-0.1017,-0.0969,-0.0933,-0.0912,-0.0881,-0.0896,-0.0906,-0.0875,-0.0875,-0.0874,-0.0866,-0.0864,-0.0893,-0.0893,-0.0893,0,-0.1651,-0.1579,-0.1524,-0.1477,-0.1439,-0.1388,-0.1347,-0.1304,-0.1219,-0.1193,-0.1186,-0.1068,-0.1018,-0.0949,-0.0944,-0.0916,-0.0902,-0.0905,-0.088,-0.0878,-0.0876,-0.0868,-0.0865,-0.0895,-0.0895,-0.0895,-0.0894,0,-0.1611,-0.1562,-0.1538,-0.1458,-0.1418,-0.1375,-0.1312,-0.1277,-0.1244,-0.12,-0.1138,-0.1076,-0.1007,-0.0988,-0.0955,-0.0914,-0.0911,-0.0892,-0.0879,-0.0879,-0.087,-0.0866,-0.0898,-0.0897,-0.0897,-0.0896,0,0,-0.1642,-0.1531,-0.1524,-0.1486,-0.1404,-0.1364,-0.1318,-0.1251,-0.1223,-0.1165,-0.1124,-0.1047,-0.1029,-0.0987,-0.0948,-0.0922,-0.0908,-0.0906,-0.0903,-0.0908,-0.0857,-0.0871,-0.0869,-0.0887,-0.0887,-0.0886,-0.0863,0,-0.1628,-0.1544,-0.1492,-0.1428,-0.1381,-0.1331,-0.129,-0.1235,-0.1192,-0.1144,-0.1096,-0.1042,-0.1023,-0.0997,-0.0969,-0.0916,-0.0897,-0.0917,-0.0847,-0.0845,-0.0865,-0.0864,-0.0879,-0.086,-0.0859,-0.0858,-0.0858,0,-0.1601,-0.1546,-0.1477,-0.14,-0.1378,-0.1342,-0.1277,-0.1233,-0.1168,-0.1138,-0.1092,-0.1053,-0.1,-0.0992,-0.0918,-0.0932,-0.0901,-0.087,-0.0868,-0.0859,-0.0851,-0.0854,-0.0853,-0.085,-0.0852,-0.0852,-0.0853,0,-0.1629,-0.1537,-0.1484,-0.1454,-0.1362,-0.1338,-0.1299,-0.1234,-0.1198,-0.114,-0.1115,-0.1052,-0.1017,-0.0968,-0.0913,-0.0912,-0.0844,-0.0831,-0.0816,-0.0818,-0.0804,-0.0805,-0.0797,-0.0785,-0.0785,-0.0785,-0.0785,0,-0.1619,-0.1579,-0.1495,-0.1463,-0.1416,-0.1357,-0.1311,-0.1267,-0.1211,-0.1167,-0.112,-0.108,-0.1009,-0.096,-0.0916,-0.0861,-0.0846,-0.0819,-0.0808,-0.0823,-0.0826,-0.0801,-0.08,-0.0784,-0.0784,-0.0784,-0.0784,0,-0.1642,-0.1585,-0.1524,-0.1442,-0.142,-0.1389,-0.1319,-0.1284,-0.1239,-0.1185,-0.1168,-0.1096,-0.1036,-0.0976,-0.0894,-0.0865,-0.081,-0.0795,-0.0832,-0.0826,-0.0814,-0.0816,-0.0789,-0.0782,-0.0775,-0.0776,-0.0776,0,-0.1639,-0.1607,-0.1522,-0.1491,-0.1452,-0.1402,-0.1364,-0.1304,-0.1266,-0.119,-0.1165,-0.1101,-0.1047,-0.0953,-0.0892,-0.083,-0.0812,-0.0807,-0.0802,-0.0818,-0.0811,-0.0813,-0.0809,-0.0809,-0.0809,-0.081,-0.081,0,-0.164,-0.1613,-0.1561,-0.1499,-0.1456,-0.1404,-0.135,-0.1326,-0.1255,-0.1215,-0.1154,-0.1112,-0.1029,-0.0966,-0.0896,-0.0853,-0.0819,-0.0812,-0.0805,-0.082,-0.0843,-0.0829,-0.0837,-0.0813,-0.0812,-0.0812,-0.0812,-0.0812,-0.1649,-0.1618,-0.1553,-0.1497,-0.145,-0.1401,-0.1364,-0.1314,-0.1262,-0.1191,-0.1158,-0.1096,-0.1031,-0.0933,-0.0891,-0.0841,-0.0832,-0.0822,-0.082,-0.0818,-0.0821,-0.0852,-0.0828,-0.0828,-0.0828,-0.0827,-0.0827,0,-0.1646,-0.1602,-0.1551,-0.1478,-0.1433,-0.1406,-0.1344,-0.1308,-0.1255,-0.1197,-0.1145,-0.1074,-0.1012,-0.0947,-0.0881,-0.0853,-0.0836,-0.0838,-0.0839,-0.083,-0.0833,-0.0846,-0.0853,-0.0853,-0.0853,-0.0853,-0.0853,-0.0853,-0.164,-0.1586,-0.1551,-0.1473,-0.1428,-0.1368,-0.1335,-0.1289,-0.1243,-0.1166,-0.1115,-0.1073,-0.1012,-0.0941,-0.0883,-0.0865,-0.0842,-0.0849,-0.0827,-0.0831,-0.0829,-0.0828,-0.0839,-0.0845,-0.0845,-0.0827,-0.0827,-0.0826]},{"header":{"parameterUnit":"m.s-1","parameterCategory":1,"la1":30.2991,"la2":30.254,"lo1":-89.0895,"lo2":-89.0444,"dy":0.0017,"dx":0.0017,"nx":28,"ny":28,"refTime":"2025-08-20T21:00:00:Z","depth":0,"parameterNumber":3,"parameterNumberName":"V-component_of_WINDS"},"data":[0,0,0,0,0,0,0,0,0,0,0,0,0,0,0,0,0,0,0,0,0,0,0,0,0,0,0,0,0,0,0,0,0,0,0,0,0,0,0,0,0,0,0,0,0,0,0,0,0,0,0,0,0,0,0,0,0,0,0.8177,0.8177,0,0.819,0.819,0.8191,0.8125,0.8123,0.8121,0.8119,0.8133,0.8135,0.8137,0,0,0,0,0,0,0,0,0,0,0,0,0,0.8096,0.8097,0.8177,0.8177,0.8177,0.819,0.819,0.8191,0.8125,0.8123,0.8121,0.8118,0.8133,0.8135,0.8138,0,0,0,0,0,0,0,0,0,0,0,0,0,0.8122,0.8098,0.8177,0.8146,0.8144,0.819,0.819,0.8191,0.8126,0.8123,0.812,0.8117,0.8132,0.8135,0.8138,0.8215,0,0,0.8148,0.8149,0,0,0,0,0,0,0,0,0.8121,0.8125,0.8151,0.8149,0.8146,0.8153,0.8167,0.8199,0.8126,0.8133,0.8119,0.8116,0.8142,0.8144,0.8153,0.8215,0.8216,0.8148,0.815,0.8151,0.8152,0,0,0,0,0,0,0,0.8119,0.8124,0.8182,0.8151,0.8148,0.8132,0.8133,0.8172,0.8153,0.8132,0.8127,0.8129,0.814,0.815,0.8153,0.8216,0.8148,0.8151,0.8153,0.8154,0.8343,0.8345,0,0,0,0,0,0,0.8121,0.8123,0.8182,0.8183,0.8126,0.8136,0.8136,0.8154,0.8153,0.815,0.8132,0.8126,0.8146,0.8149,0.8153,0.8244,0.8151,0.8154,0.8156,0.8339,0.8343,0.8347,0,0,0,0,0,0,0.812,0.8127,0.8181,0.8152,0.8157,0.814,0.816,0.8155,0.8165,0.8153,0.8149,0.8146,0.8144,0.8149,0.82,0.8243,0.8156,0.8159,0.8336,0.8341,0.8345,0.8425,0,0,0,0,0,0,0.8118,0.8127,0.8156,0.8153,0.8159,0.8228,0.8163,0.8158,0.8171,0.8164,0.8164,0.8162,0.8142,0.8196,0.8203,0.8246,0.8161,0.8332,0.8338,0.8343,0.8418,0.8432,0.8443,0,0,0,0,0,0.8115,0.8178,0.8158,0.8165,0.8195,0.8231,0.8234,0.821,0.8174,0.8204,0.8196,0.8162,0.8237,0.8201,0.8209,0.8254,0.8329,0.8336,0.8343,0.8413,0.8429,0.8443,0,0,0,0,0,0,0.8187,0.8177,0.8155,0.8218,0.8226,0.822,0.8256,0.8228,0.8246,0.8239,0.8208,0.8209,0.8266,0.8264,0.8225,0.8328,0.8277,0.8286,0.8327,0.8342,0.8355,0.8354,0.8164,0,0,0,0,0,0.821,0.824,0.823,0.8287,0.8292,0.8273,0.8288,0.8269,0.8275,0.8278,0.8274,0.8282,0.8307,0.8324,0.8347,0.8417,0.8417,0.8452,0.8464,0.8474,0.8483,0.8521,0.8536,0.8369,0.8369,0.8369,0,0,0.8259,0.8257,0.8278,0.8302,0.8305,0.8337,0.8277,0.8313,0.8336,0.8284,0.8332,0.8329,0.8336,0.8397,0.8424,0.8398,0.8529,0.8483,0.8491,0.8494,0.8529,0.8545,0.8559,0.8374,0.8373,0.8372,0,0,0.8364,0.8365,0.8413,0.8418,0.8424,0.8411,0.8423,0.8421,0.8417,0.8465,0.8426,0.8453,0.8497,0.8504,0.8513,0.862,0.859,0.8628,0.8693,0.873,0.8744,0.8755,0.8794,0.8809,0.8636,0.8636,0.8636,0,0.8424,0.847,0.8442,0.8481,0.8492,0.8446,0.8495,0.85,0.8514,0.8523,0.8493,0.8548,0.8549,0.8612,0.8638,0.8646,0.8659,0.8629,0.8744,0.8755,0.8765,0.8803,0.8817,0.8641,0.864,0.864,0.864,0,0.8544,0.8576,0.8614,0.8628,0.8644,0.8688,0.8666,0.8686,0.8665,0.8655,0.8704,0.8704,0.8726,0.8739,0.8719,0.8799,0.8783,0.8749,0.8697,0.8787,0.8821,0.8835,0.8648,0.8646,0.8645,0.8643,0,0,0.8696,0.8693,0.8708,0.8714,0.8716,0.8741,0.8782,0.8804,0.8821,0.8831,0.8866,0.8904,0.8873,0.8883,0.8863,0.8896,0.8981,0.8858,0.8857,0.8882,0.9071,0.9097,0.9114,0.8961,0.8963,0.8965,0.9071,0,0.8799,0.887,0.8846,0.8918,0.8948,0.8904,0.894,0.8946,0.8938,0.8962,0.8952,0.8981,0.8937,0.8943,0.8973,0.8965,0.9019,0.8957,0.8994,0.8995,0.8995,0.9132,0.916,0.9259,0.9084,0.9086,0.9088,0,0.893,0.8946,0.9021,0.9019,0.9031,0.9064,0.9081,0.9105,0.911,0.9102,0.9114,0.9086,0.9127,0.9074,0.913,0.9088,0.9101,0.9099,0.9103,0.9106,0.9048,0.9141,0.929,0.9306,0.9108,0.9107,0.9105,0,0.9035,0.9075,0.9125,0.9131,0.913,0.9154,0.9155,0.9157,0.9172,0.9187,0.9196,0.9215,0.9227,0.9242,0.9222,0.9185,0.9281,0.9226,0.9276,0.9277,0.93,0.9299,0.9455,0.9306,0.9306,0.9305,0.9305,0,0.9154,0.9203,0.9172,0.9204,0.9256,0.9227,0.928,0.9276,0.9278,0.9308,0.927,0.9299,0.9269,0.9295,0.9278,0.9328,0.9333,0.9328,0.9323,0.9332,0.9333,0.9342,0.9335,0.9309,0.9309,0.9308,0.9307,0,0.9281,0.9263,0.9315,0.9309,0.9309,0.9348,0.9343,0.9371,0.936,0.9398,0.9405,0.9388,0.9416,0.9396,0.9425,0.9414,0.9479,0.9464,0.9478,0.9474,0.9526,0.9522,0.9694,0.9716,0.9552,0.9553,0.9555,0,0.9359,0.9395,0.9393,0.941,0.9413,0.9441,0.9455,0.9428,0.9445,0.9453,0.9481,0.9506,0.9525,0.9573,0.9563,0.9585,0.9571,0.963,0.9574,0.9582,0.9573,0.9572,0.9576,0.9642,0.9644,0.9645,0.9646,0,0.95,0.9489,0.9511,0.9531,0.9549,0.9562,0.9573,0.9589,0.9561,0.9582,0.9611,0.9625,0.9654,0.968,0.9698,0.9698,0.9669,0.9664,0.9677,0.9687,0.9694,0.9692,0.951,0.966,0.9659,0.9658,0.9657,0.9657,0.9606,0.9636,0.9639,0.9665,0.967,0.9681,0.9708,0.97,0.9723,0.9745,0.9727,0.9761,0.9766,0.9786,0.9791,0.9817,0.9793,0.9812,0.9817,0.9822,0.983,0.9688,0.982,0.982,0.9819,0.9819,0.9819,0,0.9746,0.9746,0.977,0.9786,0.9806,0.9775,0.9785,0.9805,0.9836,0.9842,0.9861,0.9895,0.9919,0.9911,0.9933,0.9956,0.9943,0.9963,0.9962,0.9963,0.985,0.9837,0.9973,0.9973,0.9973,0.9973,0.9973,0.9973,0.9821,0.9871,0.986,0.9912,0.9911,0.9945,0.9953,0.9963,0.9968,1.0007,1.0027,1.0022,1.0022,1.0044,1.0066,1.0062,1.0073,1.0098,1.0091,0.9986,0.9971,0.9956,0.9944,1.0101,1.0101,1.0201,1.0202,1.0203]}]]